Montgomery, AL

4:50 AM CDT on May 30, 2017 (GMT -0500)
Montgomery Regional

Weather History for KMGM - April, 2014

Change the Weather History Date:

Wednesday, April 30, 2014

  Actual Average Record
Temperature  
Mean Temperature 64 °F 68 °F  
Max Temperature 71 °F 80 °F 94 °F (2007)
Min Temperature 57 °F 56 °F 40 °F (2008)
Degree Days  
Heating Degree Days 1 1  
Month to date heating degree days 60 98  
Since 1 July heating degree days 2298 2226  
Cooling Degree Days 0 4  
Month to date cooling degree days 89 72  
Year to date cooling degree days 99 101  
Growing Degree Days 17 (Base 50)    
Moisture  
Dew Point 64 °F    
Average Humidity 83    
Maximum Humidity 93    
Minimum Humidity 72    
Precipitation  
Precipitation 0.15 in 0.11 in 3.16 in (1953)
Month to date precipitation 10.15 4.02  
Year to date precipitation 23.34 19.90  
Snow  
Snow 0.00 in 0.00 in - ()
Month to date snowfall 0.0 T  
Since 1 July snowfall 0.5 0.4  
Snow Depth 0.00 in    
Sea Level Pressure  
Sea Level Pressure 29.89 in    
Wind  
Wind Speed 6 mph (SSW)    
Max Wind Speed 15 mph    
Max Gust Speed 20 mph    
Visibility 9 miles    
Events Rain , Thunderstorm    
T = Trace of Precipitation, MM = Missing Value Source: NWS Daily Summary

Daily Weather History Graph

Daily Weather History Graph

Search for Another Location

Airport or City:

Trip Planner

Search our weather history database for the weather conditions in past years. The results will help you decide how hot, cold, wet, or windy it might be!

Date:

Astronomy

Apr. 30, 2014 Rise Set
Actual Time 6:00 AM CDT 7:25 PM CDT
Civil Twilight 5:34 AM CDT 7:51 PM CDT
Nautical Twilight 5:03 AM CDT 8:23 PM CDT
Astronomical Twilight 4:30 AM CDT 8:55 PM CDT
Moon 7:02 AM CDT 9:01 PM CDT
Length of Visible Light 14h 17m
Length of Day
13h 25m
New Moon, 2% of the Moon is Illuminated
Apr 30
New Moon
May 6
First Quarter
May 14
Full
May 21
Last Quarter
May 28
New

Hourly Weather History & Observations

Time (CDT) Temp. Dew Point Humidity Pressure Visibility Wind Dir Wind Speed Gust Speed Precip Events Conditions
12:53 AM 68.0 °F 63.0 °F 84% 29.75 in 10.0 mi SE 9.2 mph 19.6 mph 0.00 in Rain Light Rain
1:53 AM 66.9 °F 62.1 °F 84% 29.77 in 10.0 mi South 5.8 mph - 0.00 in   Partly Cloudy
2:53 AM 66.9 °F 62.1 °F 84% 29.73 in 10.0 mi ENE 4.6 mph - N/A   Partly Cloudy
3:04 AM 66.2 °F 62.6 °F 88% 29.78 in 10.0 mi Calm Calm - N/A Thunderstorm Partly Cloudy
3:53 AM 66.0 °F 63.0 °F 90% 29.79 in 9.0 mi Calm Calm - 0.08 in Rain Light Rain
4:53 AM 66.0 °F 64.0 °F 93% 29.80 in 10.0 mi East 3.5 mph - 0.01 in   Mostly Cloudy
5:53 AM 66.2 °F 64.4 °F 94% 29.85 in 10.0 mi South 3.5 mph - N/A   Overcast
6:53 AM 66.9 °F 64.0 °F 90% 29.87 in 10.0 mi Calm Calm - N/A   Overcast
7:11 AM 66.2 °F 64.4 °F 94% 29.87 in 10.0 mi Calm Calm - N/A   Overcast
7:38 AM 66.2 °F 64.4 °F 94% 29.88 in 10.0 mi Calm Calm - N/A   Overcast
7:53 AM 66.9 °F 64.0 °F 90% 29.86 in 10.0 mi Calm Calm - N/A   Overcast
8:53 AM 66.9 °F 64.0 °F 90% 29.88 in 10.0 mi SSE 4.6 mph - N/A   Overcast
9:53 AM 68.0 °F 64.4 °F 88% 29.90 in 10.0 mi South 8.1 mph - N/A   Overcast
10:40 AM 68.0 °F 64.4 °F 88% 29.92 in 2.5 mi South 10.4 mph - N/A   Overcast
10:53 AM 68.0 °F 64.0 °F 87% 29.91 in 2.5 mi SSW 9.2 mph 18.4 mph 0.00 in   Overcast
11:08 AM 68.0 °F 64.4 °F 88% 29.92 in 5.0 mi SSW 8.1 mph - 0.00 in Rain Light Rain
11:27 AM 68.0 °F 64.4 °F 88% 29.92 in 2.5 mi SSW 10.4 mph - 0.00 in Rain Light Rain
11:40 AM 68.0 °F 64.4 °F 88% 29.93 in 2.5 mi SSW 9.2 mph - 0.01 in Rain Light Rain
11:48 AM 68.0 °F 64.4 °F 88% 29.94 in 2.5 mi SSW 9.2 mph - 0.01 in Rain Light Rain
11:53 AM 68.0 °F 64.9 °F 90% 29.94 in 2.5 mi South 5.8 mph - 0.01 in Rain Light Rain
12:32 PM 69.8 °F 66.2 °F 88% 29.94 in 4.0 mi South 9.2 mph 16.1 mph 0.03 in Rain Light Rain
12:48 PM 69.8 °F 64.4 °F 83% 29.93 in 9.0 mi SSW 6.9 mph 16.1 mph 0.04 in   Overcast
12:53 PM 69.1 °F 66.0 °F 90% 29.93 in 10.0 mi SSW 8.1 mph - 0.04 in   Overcast
1:20 PM 69.8 °F 64.4 °F 83% 29.94 in 10.0 mi SSW 8.1 mph - N/A   Overcast
1:53 PM 69.1 °F 66.0 °F 90% 29.93 in 10.0 mi WSW 8.1 mph - N/A   Overcast
2:53 PM 71.1 °F 64.9 °F 81% 29.91 in 10.0 mi SSW 6.9 mph - N/A   Overcast
3:53 PM 71.1 °F 64.9 °F 81% 29.91 in 10.0 mi SSW 6.9 mph - N/A   Overcast
4:10 PM 71.6 °F 64.4 °F 78% 29.91 in 10.0 mi SSW 9.2 mph 17.3 mph N/A   Overcast
4:53 PM 69.1 °F 66.0 °F 90% 29.90 in 5.0 mi WSW 5.8 mph - N/A   Overcast
5:53 PM 69.1 °F 66.0 °F 90% 29.91 in 8.0 mi SW 4.6 mph - 0.01 in Rain Light Rain
5:58 PM 69.8 °F 66.2 °F 88% 29.91 in 8.0 mi SSW 5.8 mph - 0.00 in Rain Light Rain
6:53 PM 69.1 °F 66.0 °F 90% 29.91 in 10.0 mi South 5.8 mph - 0.00 in   Overcast
7:00 PM 69.8 °F 66.2 °F 88% 29.92 in 10.0 mi South 6.9 mph - N/A   Scattered Clouds
7:53 PM 69.1 °F 66.0 °F 90% 29.93 in 10.0 mi SSW 5.8 mph - N/A   Clear
8:53 PM 68.0 °F 64.9 °F 90% 29.95 in 10.0 mi SW 6.9 mph - N/A   Clear
9:31 PM 68.0 °F 64.4 °F 88% 29.96 in 10.0 mi SW 4.6 mph - N/A   Scattered Clouds
9:53 PM 66.9 °F 62.1 °F 84% 29.97 in 10.0 mi West 10.4 mph - N/A   Mostly Cloudy
10:53 PM 63.0 °F 55.9 °F 78% 30.00 in 10.0 mi WNW 8.1 mph - N/A   Clear
11:53 PM 60.1 °F 51.1 °F 72% 30.03 in 10.0 mi NW 9.2 mph - N/A   Clear